Mattoon, IL

3:07 AM CDT on September 21, 2017 (GMT -0500)
Coles County Memorial

Weather History for KMTO - February, 2013

Change the Weather History Date:

Saturday, February 2, 2013

  Actual Average Record
Temperature  
Mean Temperature 25 °F 28 °F  
Max Temperature 31 °F 36 °F 62 °F (2016)
Min Temperature 18 °F 21 °F -9 °F (1951)
Degree Days  
Heating Degree Days 40 37  
Month to date heating degree days 91 74  
Since 1 July heating degree days 3129 3350  
Cooling Degree Days 0 0  
Month to date cooling degree days 0 0  
Year to date cooling degree days 0 0  
Moisture  
Dew Point 20 °F    
Average Humidity 86    
Maximum Humidity 100    
Minimum Humidity 72    
Precipitation  
Precipitation 0.01 in 0.07 in 0.61 in (1983)
Month to date precipitation 0.01 0.13  
Year to date precipitation 3.88 2.34  
Sea Level Pressure  
Sea Level Pressure 30.12 in    
Wind  
Wind Speed 11 mph (WSW)    
Max Wind Speed 21 mph    
Max Gust Speed 25 mph    
Visibility 7 miles    
Events Snow    
T = Trace of Precipitation, MM = Missing Value Source: NWS Daily Summary

Daily Weather History Graph

Daily Weather History Graph

Search for Another Location

Airport or City:

Trip Planner

Search our weather history database for the weather conditions in past years. The results will help you decide how hot, cold, wet, or windy it might be!

Date:

Astronomy

Feb. 02, 2013 Rise Set
Actual Time 6:59 AM CST 5:14 PM CST
Civil Twilight 6:31 AM CST 5:43 PM CST
Nautical Twilight 5:58 AM CST 6:15 PM CST
Astronomical Twilight 5:27 AM CST 6:46 PM CST
Moon No Moon Rise 10:11 AM CST (2/2)
Length of Visible Light 11h 12m
Length of Day
10h 15m
Waning Gibbous, 59% of the Moon is Illuminated
Feb 2
Waning Gibbous
Feb 3
Last Quarter
Feb 10
New
Feb 17
First Quarter
Feb 25
Full

Hourly Weather History & Observations

Time (CST) Temp. Windchill Dew Point Humidity Pressure Visibility Wind Dir Wind Speed Gust Speed Precip Events Conditions
12:15 AM 21.2 °F 8.3 °F 15.8 °F 80% 30.21 in 2.5 mi South 13.8 mph - 0.00 in Snow Light Snow
12:24 AM 21.2 °F 7.8 °F 15.8 °F 80% 30.20 in 5.0 mi SSW 15.0 mph - 0.00 in Snow Light Snow
12:53 AM 21.9 °F 10.4 °F 18.0 °F 85% 30.22 in 4.0 mi South 11.5 mph 19.6 mph 0.00 in Snow Light Snow
1:03 AM 21.2 °F 9.5 °F 19.4 °F 93% 30.19 in 1.8 mi South 11.5 mph - 0.00 in Snow Light Snow
1:13 AM 21.2 °F 9.5 °F 19.4 °F 93% 30.18 in 1.2 mi South 11.5 mph - 0.00 in Snow Light Snow
1:53 AM 21.9 °F 10.4 °F 21.0 °F 96% 30.22 in 1.5 mi SSW 11.5 mph - 0.00 in Snow Light Snow
2:53 AM 21.9 °F 11.0 °F 19.9 °F 92% 30.18 in 2.5 mi South 10.4 mph - 0.00 in Snow Light Snow
2:58 AM 21.2 °F 10.9 °F 19.4 °F 93% 30.15 in 5.0 mi South 9.2 mph - 0.00 in Snow Light Snow
3:53 AM 21.9 °F 14.5 °F 19.0 °F 89% 30.17 in 10.0 mi South 5.8 mph - 0.00 in   Scattered Clouds
4:53 AM 21.9 °F 13.4 °F 18.0 °F 85% 30.14 in 10.0 mi South 6.9 mph - N/A   Overcast
6:53 AM 23.0 °F 12.4 °F 18.0 °F 81% 30.09 in 10.0 mi South 10.4 mph - 0.01 in   Overcast
7:53 AM 24.1 °F 13.7 °F 18.0 °F 77% 30.09 in 10.0 mi SSW 10.4 mph - N/A   Overcast
8:53 AM 26.1 °F 16.8 °F 19.9 °F 78% 30.08 in 3.0 mi SSW 9.2 mph 17.3 mph 0.00 in Snow Light Snow
9:53 AM 27.0 °F 19.5 °F 23.0 °F 85% 30.08 in 6.0 mi SW 6.9 mph - 0.00 in Snow Light Snow
10:03 AM 26.6 °F 17.5 °F 24.8 °F 93% 30.05 in 2.0 mi SW 9.2 mph 16.1 mph 0.00 in Snow Light Snow
10:26 AM 28.4 °F 20.4 °F 24.8 °F 86% 30.05 in 9.0 mi SW 8.1 mph - 0.00 in   Overcast
10:53 AM 28.9 °F 20.4 °F 21.9 °F 75% 30.07 in 10.0 mi SW 9.2 mph - 0.00 in   Overcast
11:53 AM 30.9 °F 20.7 °F 24.1 °F 76% 30.06 in 10.0 mi WNW 13.8 mph - N/A   Overcast
12:53 PM 30.9 °F 19.8 °F 24.1 °F 76% 30.05 in 10.0 mi WNW 16.1 mph - N/A   Overcast
1:53 PM 30.9 °F 21.7 °F 25.0 °F 79% 30.05 in 10.0 mi WNW 11.5 mph - N/A   Overcast
2:53 PM 30.9 °F 20.2 °F 24.1 °F 76% 30.06 in 10.0 mi NW 15.0 mph - N/A   Overcast
3:53 PM 30.0 °F 19.5 °F 23.0 °F 75% 30.08 in 10.0 mi NW 13.8 mph - N/A   Overcast
4:53 PM 27.0 °F 13.9 °F 21.0 °F 78% 30.09 in 10.0 mi NW 18.4 mph 24.2 mph N/A   Mostly Cloudy
5:46 PM 24.8 °F 12.9 °F 21.2 °F 86% 30.08 in 8.0 mi NNW 13.8 mph - N/A   Overcast
5:53 PM 25.0 °F 14.2 °F 21.9 °F 88% 30.12 in 8.0 mi NNW 11.5 mph - N/A   Overcast
6:15 PM 24.8 °F 11.1 °F 19.4 °F 80% 30.09 in 8.0 mi NW 18.4 mph 24.2 mph N/A   Overcast
6:53 PM 23.0 °F 9.2 °F 18.0 °F 81% 30.13 in 9.0 mi NNW 17.3 mph - N/A   Overcast
7:33 PM 21.2 °F 8.9 °F 17.6 °F 86% 30.09 in 10.0 mi NNW 12.7 mph - N/A   Overcast
7:53 PM 21.0 °F 8.1 °F 16.0 °F 81% 30.12 in 10.0 mi NNW 13.8 mph - N/A   Mostly Cloudy
8:53 PM 19.9 °F 8.6 °F 17.1 °F 89% 30.13 in 9.0 mi North 10.4 mph - N/A   Overcast
9:53 PM 19.9 °F 10.1 °F 16.0 °F 85% 30.13 in 8.0 mi NNW 8.1 mph - N/A   Overcast
10:53 PM 18.0 °F 12.7 °F 15.1 °F 88% 30.11 in 9.0 mi NNW 3.5 mph - N/A   Overcast
11:53 PM 19.0 °F - 15.1 °F 85% 30.09 in 9.0 mi Calm Calm - N/A   Mostly Cloudy